This is the latest recevied weather packets stored in our database for station/object SQ9MHX-13. If no packets are shown the sender has not sent any weather packets the latest 10 day(s).
| Time | Temp. | Humidity | Pressure | Rain* | Wind** | Luminosity | Snow |
|---|---|---|---|---|---|---|---|
| 1777498745 | 1.11° C | 63% | 999.9 hPa | - | 0 m/s | - | - |
| 1777498447 | 1.11° C | 63% | 999.3 hPa | - | 0 m/s | - | - |
| 1777497851 | 1.11° C | 63% | 999.5 hPa | - | 0 m/s | - | - |
| 1777497553 | 1.11° C | 63% | 999.3 hPa | - | 0 m/s | - | - |
| 1777497255 | 1.11° C | 62% | 999.1 hPa | - | 0 m/s | - | - |
| 1777496957 | 1.11° C | 62% | 999.3 hPa | - | 0 m/s | - | - |
| 1777496660 | 1.11° C | 63% | 999.7 hPa | - | 0 m/s | - | - |
| 1777496362 | 0° C | 63% | 1000.2 hPa | - | 0 m/s | - | - |
| 1777496064 | 0° C | 64% | 1000.2 hPa | - | 0 m/s | - | - |
| 1777495766 | 0° C | 64% | 999.9 hPa | - | 0 m/s | - | - |
| 1777495574 | 0° C | 63% | 999.8 hPa | - | 0 m/s | - | - |
| 1777495468 | 0° C | 64% | 999.8 hPa | - | 0 m/s | - | - |
| 1777495170 | 0° C | 63% | 999.6 hPa | - | 0 m/s | - | - |
| 1777494872 | 0° C | 63% | 999.8 hPa | - | 0 m/s | - | - |
| 1777494574 | 0° C | 63% | 1000 hPa | - | 0 m/s | - | - |
| 1777494277 | 0° C | 63% | 1000.2 hPa | - | 0 m/s | - | - |
| 1777493979 | 0° C | 63% | 1000.5 hPa | - | 0 m/s | - | - |
| 1777493681 | 0° C | 66% | 1000.1 hPa | - | 0 m/s | - | - |
| 1777493383 | 0° C | 64% | 999.5 hPa | - | 0 m/s | - | - |
| 1777493085 | 0° C | 63% | 999.9 hPa | - | 0 m/s | - | - |
| 1777492787 | 0° C | 65% | 1000.4 hPa | - | 0 m/s | - | - |
| 1777492681 | 0° C | 65% | 1000.3 hPa | - | 0 m/s | - | - |
| 1777492489 | 0° C | 65% | 1000.3 hPa | - | 0 m/s | - | - |
| 1777491894 | 1.11° C | 63% | 999.6 hPa | - | 0 m/s | - | - |
| 1777491596 | 1.11° C | 63% | 999.2 hPa | - | 0 m/s | - | - |
* Rain since midnight (hover to see other rain measurements)
** Current wind speed in m/s (hover to see current wind gust speed)